OVO560B ZUGY-ZYHB

Flight info

Callsign OVO560B
Flight time 3h 45m
Altitude 39100
Route AVBOB3C AVBOB W586 TRN W183 HUY A581 BODUV/K0876S1160 W102 ENH/K0870S1190 W102 EMVIL W284 UPSIK W4 LIMGI W175 AVKES G212 SOTMU/K0867S1220 B339 HUR/K0869S1190 B334 TGO G212 RUSBO W203 PIGAM PIG39A
Aircraft A343/H-SDE2E3FGHIJ4J5M1RWXY/LB1D1

Departure

Time 2026-04-25 06:32
Airport Guiyang Longdongbao International Airport (ZUGY)

Arrival

Time 2026-04-25 10:17
Airport Harbin Taiping International Airport (ZYHB)
Time Latitude Longitude Altitude Speed Heading
2026-04-25 06:09 26.54598 106.79898 3751 ft 0 kts 330°
2026-04-25 06:12 26.54592 106.79902 3751 ft 2 kts 330°
2026-04-25 06:12 26.54578 106.79911 3773 ft 2 kts 330°
2026-04-25 06:13 26.54564 106.79919 3747 ft 2 kts 330°
2026-04-25 06:13 26.54551 106.79928 3751 ft 2 kts 330°
2026-04-25 06:13 26.54537 106.79936 3751 ft 2 kts 330°
2026-04-25 06:14 26.54508 106.79944 3752 ft 2 kts 43°
2026-04-25 06:14 26.54499 106.79931 3752 ft 1 kts 92°
2026-04-25 06:26 26.54498 106.79953 3751 ft 17 kts 92°
2026-04-25 06:26 26.54506 106.80034 3750 ft 5 kts 45°
2026-04-25 06:26 26.54547 106.80054 3750 ft 12 kts 22°
2026-04-25 06:26 26.54628 106.80079 3750 ft 12 kts 13°
2026-04-25 06:27 26.54710 106.80095 3750 ft 12 kts
2026-04-25 06:27 26.54790 106.80110 3750 ft 12 kts 10°
2026-04-25 06:27 26.54871 106.80126 3750 ft 12 kts 10°
2026-04-25 06:27 26.54924 106.80137 3750 ft 12 kts 10°
2026-04-25 06:28 26.55005 106.80153 3750 ft 12 kts 10°
2026-04-25 06:28 26.55087 106.80168 3750 ft 12 kts
2026-04-25 06:28 26.55169 106.80183 3750 ft 12 kts
2026-04-25 06:28 26.55253 106.80198 3749 ft 12 kts
2026-04-25 06:29 26.55335 106.80216 3750 ft 12 kts 11°
2026-04-25 06:29 26.55414 106.80232 3750 ft 11 kts 11°
2026-04-25 06:29 26.55486 106.80252 3751 ft 10 kts 22°
2026-04-25 06:29 26.55518 106.80312 3751 ft 9 kts 91°
2026-04-25 06:30 26.55507 106.80380 3751 ft 9 kts 106°
2026-04-25 06:30 26.55469 106.80433 3750 ft 9 kts 144°
2026-04-25 06:30 26.55423 106.80439 3750 ft 6 kts 187°
2026-04-25 06:30 26.55388 106.80423 3749 ft 6 kts 198°
2026-04-25 06:31 26.55318 106.80406 3747 ft 27 kts 190°
2026-04-25 06:31 26.54933 106.80331 3746 ft 84 kts 190°
2026-04-25 06:31 26.54196 106.80188 3745 ft 130 kts 190°
2026-04-25 06:31 26.53167 106.79991 3770 ft 167 kts 191°
2026-04-25 06:32 26.52037 106.79801 4325 ft 162 kts 188°
2026-04-25 06:32 26.50871 106.79591 4701 ft 176 kts 190°
2026-04-25 06:32 26.49634 106.79347 5206 ft 187 kts 190°
2026-04-25 06:32 26.48311 106.79093 5679 ft 200 kts 189°
2026-04-25 06:33 26.46862 106.78893 6091 ft 222 kts 184°
2026-04-25 06:33 26.45234 106.78970 6385 ft 251 kts 161°
2026-04-25 06:33 26.43662 106.79959 6836 ft 268 kts 140°
2026-04-25 06:33 26.42646 106.81717 7503 ft 278 kts 105°
2026-04-25 06:34 26.42605 106.83876 8311 ft 282 kts 82°
2026-04-25 06:34 26.42734 106.86077 9102 ft 286 kts 90°
2026-04-25 06:34 26.42666 106.88307 9910 ft 290 kts 94°
2026-04-25 06:34 26.42481 106.90541 10515 ft 300 kts 97°
2026-04-25 06:35 26.42206 106.92927 10812 ft 321 kts 99°
2026-04-25 06:35 26.41864 106.95462 11072 ft 340 kts 99°
2026-04-25 06:35 26.41475 106.98143 11325 ft 359 kts 100°
2026-04-25 06:35 26.41053 107.00956 11616 ft 375 kts 100°
2026-04-25 06:36 26.40614 107.03860 12107 ft 383 kts 100°
2026-04-25 06:36 26.40171 107.06816 12655 ft 390 kts 99°
2026-04-25 06:36 26.39912 107.09847 13202 ft 395 kts 91°
2026-04-25 06:36 26.40039 107.12926 13788 ft 401 kts 82°
2026-04-25 06:37 26.40597 107.15987 14332 ft 405 kts 73°
2026-04-25 06:37 26.41584 107.18933 14917 ft 406 kts 64°
2026-04-25 06:37 26.42973 107.21676 15551 ft 406 kts 54°
2026-04-25 06:37 26.44723 107.24147 16189 ft 407 kts 45°
2026-04-25 06:38 26.46792 107.26298 16830 ft 407 kts 38°
2026-04-25 06:38 26.48944 107.28370 17490 ft 410 kts 40°
2026-04-25 06:38 26.50966 107.30635 18138 ft 413 kts 44°
2026-04-25 06:38 26.52929 107.32994 18694 ft 416 kts 45°
2026-04-25 06:39 26.54891 107.35387 19193 ft 419 kts 45°
2026-04-25 06:39 26.56925 107.37738 19670 ft 422 kts 41°
2026-04-25 06:39 26.59031 107.40045 20161 ft 426 kts 41°
2026-04-25 06:39 26.61126 107.42343 20657 ft 429 kts 41°
2026-04-25 06:40 26.63253 107.44693 21138 ft 432 kts 41°
2026-04-25 06:40 26.65396 107.47073 21616 ft 436 kts 41°
2026-04-25 06:40 26.67550 107.49472 22101 ft 439 kts 40°
2026-04-25 06:40 26.69716 107.51890 22635 ft 441 kts 40°
2026-04-25 06:41 26.71887 107.54317 23147 ft 443 kts 40°
2026-04-25 06:41 26.74074 107.56764 23627 ft 446 kts 40°
2026-04-25 06:41 26.76273 107.59227 24011 ft 449 kts 40°
2026-04-25 06:41 26.78399 107.61812 24370 ft 456 kts 46°
2026-04-25 06:42 26.80350 107.64644 24721 ft 461 kts 48°
2026-04-25 06:42 26.82259 107.67533 25096 ft 464 kts 48°
2026-04-25 06:42 26.84178 107.70455 25472 ft 467 kts 48°
2026-04-25 06:42 26.86103 107.73386 25855 ft 468 kts 48°
2026-04-25 06:43 26.88038 107.76332 26178 ft 471 kts 48°
2026-04-25 06:43 26.89987 107.79296 26480 ft 475 kts 48°
2026-04-25 06:43 26.91950 107.82285 26841 ft 477 kts 48°
2026-04-25 06:43 26.93919 107.85286 27255 ft 478 kts 47°
2026-04-25 06:44 26.95895 107.88297 27607 ft 480 kts 47°
2026-04-25 06:44 26.97879 107.91321 27900 ft 483 kts 47°
2026-04-25 06:44 26.99877 107.94369 28197 ft 486 kts 47°
2026-04-25 06:44 27.01885 107.97436 28482 ft 489 kts 47°
2026-04-25 06:45 27.03903 108.00519 28795 ft 492 kts 47°
2026-04-25 06:45 27.05931 108.03619 29080 ft 494 kts 47°
2026-04-25 06:45 27.07968 108.06735 29373 ft 496 kts 47°
2026-04-25 06:45 27.10010 108.09862 29638 ft 499 kts 47°
2026-04-25 06:46 27.12064 108.13009 29968 ft 499 kts 47°
2026-04-25 06:46 27.14113 108.16154 30332 ft 499 kts 47°
2026-04-25 06:46 27.16163 108.19300 30620 ft 500 kts 47°
2026-04-25 06:46 27.18212 108.22455 30921 ft 500 kts 47°
2026-04-25 06:47 27.20238 108.25574 31205 ft 500 kts 47°
2026-04-25 06:47 27.22288 108.28730 31489 ft 501 kts 47°
2026-04-25 06:47 27.24340 108.31891 31788 ft 501 kts 47°
2026-04-25 06:47 27.26394 108.35059 32042 ft 502 kts 47°
2026-04-25 06:48 27.28449 108.38230 32277 ft 502 kts 47°
2026-04-25 06:48 27.30503 108.41403 32608 ft 501 kts 47°
2026-04-25 06:48 27.32554 108.44573 32868 ft 502 kts 47°
2026-04-25 06:48 27.34617 108.47759 33023 ft 505 kts 47°
2026-04-25 06:49 27.36684 108.50958 33303 ft 505 kts 47°
2026-04-25 06:49 27.38749 108.54157 33586 ft 505 kts 47°
2026-04-25 06:49 27.40812 108.57358 33884 ft 505 kts 47°
2026-04-25 06:49 27.42874 108.60558 34149 ft 505 kts 47°
2026-04-25 06:50 27.44936 108.63759 34357 ft 506 kts 47°
2026-04-25 06:50 27.47001 108.66965 34555 ft 506 kts 47°
2026-04-25 06:50 27.49068 108.70179 34738 ft 507 kts 47°
2026-04-25 06:50 27.51136 108.73397 34952 ft 507 kts 47°
2026-04-25 06:51 27.53203 108.76615 35143 ft 507 kts 47°
2026-04-25 06:51 27.55271 108.79838 35322 ft 509 kts 47°
2026-04-25 06:51 27.57354 108.83082 35409 ft 512 kts 47°
2026-04-25 06:51 27.59441 108.86336 35590 ft 513 kts 47°
2026-04-25 06:52 27.61528 108.89594 35807 ft 513 kts 48°
2026-04-25 06:52 27.63613 108.92856 36090 ft 512 kts 47°
2026-04-25 06:52 27.65689 108.96108 36383 ft 510 kts 47°
2026-04-25 06:52 27.67757 108.99348 36571 ft 510 kts 47°
2026-04-25 06:53 27.69832 109.02598 36734 ft 510 kts 47°
2026-04-25 06:53 27.71906 109.05848 36919 ft 511 kts 47°
2026-04-25 06:53 27.73986 109.09110 37087 ft 512 kts 47°
2026-04-25 06:53 27.76064 109.12369 37268 ft 512 kts 47°
2026-04-25 06:54 27.78146 109.15637 37391 ft 514 kts 47°
2026-04-25 06:54 27.80235 109.18918 37523 ft 515 kts 47°
2026-04-25 06:54 27.82342 109.22179 37708 ft 512 kts 44°
2026-04-25 06:54 27.84704 109.25134 37885 ft 502 kts 35°
2026-04-25 06:55 27.87388 109.27587 38109 ft 489 kts 25°
2026-04-25 06:55 27.90260 109.29416 38506 ft 472 kts 15°
2026-04-25 06:55 27.93297 109.30672 38684 ft 459 kts
2026-04-25 06:56 27.99494 109.32237 38902 ft 455 kts
2026-04-25 06:56 28.02597 109.32897 39030 ft 454 kts
2026-04-25 06:56 28.05707 109.33541 39085 ft 454 kts
2026-04-25 06:57 28.11893 109.34843 39091 ft 450 kts
2026-04-25 06:57 28.18036 109.36175 39091 ft 448 kts
2026-04-25 06:58 28.24149 109.37519 39089 ft 447 kts
2026-04-25 06:58 28.30253 109.38864 39089 ft 447 kts
2026-04-25 06:59 28.36358 109.40211 39088 ft 447 kts
2026-04-25 06:59 28.42464 109.41559 39086 ft 446 kts
2026-04-25 07:00 28.48541 109.42970 39082 ft 449 kts
2026-04-25 07:00 28.54347 109.45767 39083 ft 468 kts 24°
2026-04-25 07:00 28.56982 109.48014 39086 ft 481 kts 34°
2026-04-25 07:01 28.59280 109.50843 39086 ft 494 kts 46°
2026-04-25 07:01 28.61122 109.54196 39083 ft 506 kts 57°
2026-04-25 07:01 28.62712 109.57761 39085 ft 503 kts 52°
2026-04-25 07:02 28.66903 109.63940 39076 ft 483 kts 34°
2026-04-25 07:02 28.69510 109.66258 39081 ft 468 kts 23°
2026-04-25 07:02 28.72344 109.67949 39079 ft 454 kts 13°
2026-04-25 07:02 28.75320 109.69017 39080 ft 442 kts
2026-04-25 07:03 28.78328 109.69477 39077 ft 432 kts 354°
2026-04-25 07:03 28.84158 109.68735 39076 ft 415 kts 337°
2026-04-25 07:04 28.89537 109.66482 39077 ft 414 kts 336°
2026-04-25 07:04 28.95262 109.65216 39087 ft 424 kts 348°
2026-04-25 07:05 29.01179 109.64822 39080 ft 427 kts 351°
2026-04-25 07:05 29.07129 109.64617 39079 ft 428 kts 352°
2026-04-25 07:06 29.13080 109.64428 39080 ft 428 kts 351°
2026-04-25 07:06 29.19030 109.64217 39075 ft 428 kts 351°
2026-04-25 07:07 29.24975 109.63991 39083 ft 427 kts 352°
2026-04-25 07:07 29.30912 109.63764 39077 ft 427 kts 352°
2026-04-25 07:08 29.36846 109.63536 39069 ft 427 kts 352°
2026-04-25 07:08 29.42781 109.63309 39075 ft 427 kts 352°
2026-04-25 07:09 29.48717 109.63081 39098 ft 427 kts 352°
2026-04-25 07:09 29.54651 109.62863 39082 ft 427 kts 352°
2026-04-25 07:10 29.60584 109.62639 39083 ft 426 kts 352°
2026-04-25 07:10 29.66512 109.62413 39073 ft 426 kts 352°
2026-04-25 07:11 29.72398 109.62190 39079 ft 426 kts 352°
2026-04-25 07:11 29.78330 109.61967 39073 ft 427 kts 352°
2026-04-25 07:12 29.84266 109.61741 39073 ft 427 kts 352°
2026-04-25 07:12 29.93168 109.61410 39070 ft 426 kts 352°
2026-04-25 07:13 29.99099 109.61185 39070 ft 426 kts 352°
2026-04-25 07:13 30.05023 109.60957 39073 ft 425 kts 353°
2026-04-25 07:14 30.10926 109.60733 39071 ft 424 kts 353°
2026-04-25 07:14 30.16828 109.60522 39074 ft 424 kts 353°
2026-04-25 07:15 30.22722 109.60316 39069 ft 424 kts 353°
2026-04-25 07:15 30.28630 109.60167 39068 ft 424 kts 353°
2026-04-25 07:16 30.34527 109.60322 39070 ft 424 kts 359°
2026-04-25 07:16 30.40397 109.60879 39070 ft 423 kts 360°
2026-04-25 07:17 30.46254 109.61502 39064 ft 423 kts 360°
2026-04-25 07:17 30.52075 109.62079 39063 ft 422 kts 359°
2026-04-25 07:18 30.57935 109.62623 39066 ft 422 kts 360°
2026-04-25 07:18 30.63790 109.63156 39064 ft 422 kts 360°
2026-04-25 07:19 30.69637 109.63688 39058 ft 421 kts 360°
2026-04-25 07:19 30.75486 109.64222 39057 ft 421 kts 359°
2026-04-25 07:20 30.80382 109.64670 39052 ft 421 kts 360°
2026-04-25 07:20 30.87160 109.65300 39043 ft 419 kts 360°
2026-04-25 07:21 30.91990 109.65738 39046 ft 418 kts
2026-04-25 07:21 30.97786 109.66261 39039 ft 418 kts 360°
2026-04-25 07:22 31.03584 109.66788 39044 ft 418 kts 360°
2026-04-25 07:22 31.09384 109.67320 39045 ft 418 kts
2026-04-25 07:23 31.15150 109.67850 39037 ft 414 kts
2026-04-25 07:23 31.20886 109.68377 39045 ft 413 kts
2026-04-25 07:24 31.26617 109.68903 39045 ft 413 kts
2026-04-25 07:24 31.32357 109.69430 39045 ft 413 kts
2026-04-25 07:25 31.38079 109.69958 39050 ft 412 kts
2026-04-25 07:25 31.43779 109.70485 39054 ft 411 kts
2026-04-25 07:26 31.49476 109.71010 39049 ft 410 kts
2026-04-25 07:26 31.55172 109.71536 39049 ft 411 kts
2026-04-25 07:27 31.60867 109.72063 39059 ft 411 kts
2026-04-25 07:27 31.66559 109.72592 39052 ft 410 kts
2026-04-25 07:28 31.72240 109.73120 39042 ft 409 kts
2026-04-25 07:28 31.77922 109.73648 39043 ft 410 kts
2026-04-25 07:29 31.83570 109.74173 39035 ft 410 kts
2026-04-25 07:29 31.89245 109.74702 39027 ft 408 kts
2026-04-25 07:30 31.94899 109.75230 39025 ft 407 kts
2026-04-25 07:30 32.00550 109.75758 39022 ft 407 kts
2026-04-25 07:31 32.06198 109.76286 39019 ft 407 kts
2026-04-25 07:31 32.11847 109.76815 39021 ft 407 kts
2026-04-25 07:32 32.17494 109.77343 39015 ft 407 kts
2026-04-25 07:32 32.23079 109.78671 39018 ft 415 kts 14°
2026-04-25 07:33 32.28439 109.81328 39020 ft 420 kts 19°
2026-04-25 07:33 32.33745 109.84271 39004 ft 422 kts 19°
2026-04-25 07:34 32.39051 109.87261 39003 ft 422 kts 19°
2026-04-25 07:34 32.44357 109.90227 39009 ft 422 kts 19°
2026-04-25 07:35 32.49667 109.93180 39011 ft 421 kts 19°
2026-04-25 07:35 32.54973 109.96129 39007 ft 421 kts 19°
2026-04-25 07:36 32.60280 109.99083 39005 ft 421 kts 20°
2026-04-25 07:36 32.65572 110.02035 39010 ft 420 kts 19°
2026-04-25 07:37 32.70863 110.04988 39013 ft 421 kts 19°
2026-04-25 07:37 32.76128 110.07932 39013 ft 421 kts 19°
2026-04-25 07:38 32.81425 110.10899 39016 ft 421 kts 19°
2026-04-25 07:38 32.86726 110.13870 39050 ft 421 kts 20°
2026-04-25 07:39 32.92032 110.16847 39023 ft 422 kts 20°
2026-04-25 07:39 32.97354 110.19838 39023 ft 423 kts 20°
2026-04-25 07:40 33.02677 110.22836 39013 ft 423 kts 20°
2026-04-25 07:40 33.07995 110.25834 39019 ft 423 kts 20°
2026-04-25 07:41 33.13306 110.28832 39026 ft 422 kts 20°
2026-04-25 07:41 33.18612 110.31831 39031 ft 422 kts 20°
2026-04-25 07:42 33.23916 110.34832 39034 ft 422 kts 20°
2026-04-25 07:42 33.29222 110.37839 39040 ft 422 kts 20°
2026-04-25 07:43 33.34542 110.40856 39038 ft 424 kts 20°
2026-04-25 07:43 33.39862 110.43880 39035 ft 423 kts 20°
2026-04-25 07:44 33.45183 110.46906 39030 ft 423 kts 20°
2026-04-25 07:44 33.50507 110.49939 39034 ft 424 kts 20°
2026-04-25 07:45 33.55846 110.52992 39032 ft 425 kts 21°
2026-04-25 07:45 33.61197 110.56047 39033 ft 426 kts 21°
2026-04-25 07:46 33.66542 110.59104 39033 ft 426 kts 21°
2026-04-25 07:46 33.71895 110.62170 39031 ft 426 kts 21°
2026-04-25 07:47 33.77246 110.65239 39035 ft 427 kts 21°
2026-04-25 07:47 33.82571 110.68300 39032 ft 427 kts 21°
2026-04-25 07:48 33.87932 110.71387 39032 ft 427 kts 21°
2026-04-25 07:48 33.93293 110.74475 39032 ft 427 kts 21°
2026-04-25 07:49 33.98653 110.77568 39024 ft 427 kts 21°
2026-04-25 07:49 34.03998 110.80657 39031 ft 426 kts 21°
2026-04-25 07:50 34.09354 110.83757 39025 ft 428 kts 21°
2026-04-25 07:50 34.14726 110.86868 39019 ft 428 kts 21°
2026-04-25 07:51 34.20098 110.89985 39022 ft 429 kts 21°
2026-04-25 07:51 34.25474 110.93108 39018 ft 429 kts 21°
2026-04-25 07:52 34.30843 110.96234 39011 ft 428 kts 21°
2026-04-25 07:52 34.36216 110.99365 39012 ft 429 kts 21°
2026-04-25 07:53 34.41674 111.02191 39019 ft 424 kts 13°
2026-04-25 07:53 34.47407 111.03297 39016 ft 414 kts
2026-04-25 07:54 34.53162 111.03428 39010 ft 414 kts 358°
2026-04-25 07:54 34.58924 111.03399 39009 ft 414 kts 358°
2026-04-25 07:55 34.64690 111.03369 39008 ft 414 kts 358°
2026-04-25 07:55 34.70447 111.03365 39003 ft 414 kts 358°
2026-04-25 07:56 34.76172 111.03372 38999 ft 414 kts 358°
2026-04-25 07:56 34.81933 111.03381 38997 ft 414 kts 358°
2026-04-25 07:57 34.87688 111.03390 39010 ft 414 kts 358°
2026-04-25 07:57 34.93432 111.03405 39000 ft 411 kts 358°
2026-04-25 07:58 34.99146 111.03407 38991 ft 410 kts 358°
2026-04-25 07:58 35.04853 111.03410 38993 ft 410 kts 358°
2026-04-25 07:59 35.10552 111.03770 38992 ft 413 kts
2026-04-25 07:59 35.16064 111.05834 38990 ft 417 kts 18°
2026-04-25 08:00 35.21346 111.08792 38993 ft 418 kts 20°
2026-04-25 08:00 35.26582 111.11897 38989 ft 418 kts 21°
2026-04-25 08:01 35.31819 111.15009 39005 ft 419 kts 21°
2026-04-25 08:01 35.37091 111.18106 38991 ft 421 kts 20°
2026-04-25 08:02 35.42376 111.21202 38989 ft 421 kts 20°
2026-04-25 08:02 35.47657 111.24301 38989 ft 421 kts 20°
2026-04-25 08:03 35.52942 111.27409 38995 ft 421 kts 20°
2026-04-25 08:03 35.58219 111.30518 38993 ft 420 kts 20°
2026-04-25 08:04 35.63476 111.33620 38995 ft 419 kts 20°
2026-04-25 08:04 35.68728 111.36722 38991 ft 419 kts 20°
2026-04-25 08:05 35.73986 111.39833 38989 ft 419 kts 20°
2026-04-25 08:05 35.79237 111.42945 38995 ft 419 kts 20°
2026-04-25 08:06 35.84447 111.46037 38995 ft 418 kts 20°
2026-04-25 08:06 35.89683 111.49149 38995 ft 418 kts 20°
2026-04-25 08:07 35.94923 111.52266 38995 ft 418 kts 20°
2026-04-25 08:07 36.00161 111.55389 39000 ft 418 kts 20°
2026-04-25 08:08 36.05397 111.58515 38997 ft 418 kts 20°
2026-04-25 08:08 36.10624 111.61640 38998 ft 417 kts 20°
2026-04-25 08:09 36.15857 111.64773 39001 ft 418 kts 20°
2026-04-25 08:09 36.21082 111.67906 38984 ft 417 kts 20°
2026-04-25 08:10 36.25457 111.70533 38997 ft 417 kts 20°
2026-04-25 08:10 36.30679 111.73672 39000 ft 417 kts 20°
2026-04-25 08:11 36.35895 111.76814 39001 ft 417 kts 20°
2026-04-25 08:11 36.41081 111.79940 39019 ft 417 kts 20°
2026-04-25 08:12 36.46305 111.83095 39004 ft 418 kts 20°
2026-04-25 08:12 36.51538 111.86264 39016 ft 418 kts 20°
2026-04-25 08:13 36.56782 111.89444 39013 ft 419 kts 20°
2026-04-25 08:14 36.64619 111.94196 39019 ft 417 kts 20°
2026-04-25 08:14 36.69803 111.97371 39017 ft 418 kts 20°
2026-04-25 08:15 36.75009 112.00634 39012 ft 419 kts 20°
2026-04-25 08:15 36.80215 112.03904 39013 ft 419 kts 20°
2026-04-25 08:16 36.85421 112.07173 39015 ft 419 kts 20°
2026-04-25 08:16 36.90623 112.10443 39017 ft 418 kts 20°
2026-04-25 08:17 36.95824 112.13714 39013 ft 419 kts 20°
2026-04-25 08:17 37.01044 112.17001 39006 ft 421 kts 20°
2026-04-25 08:18 37.06283 112.20303 39005 ft 422 kts 20°
2026-04-25 08:18 37.11526 112.23611 38999 ft 421 kts 20°
2026-04-25 08:19 37.16803 112.26763 38992 ft 420 kts 19°
2026-04-25 08:19 37.22107 112.29851 38994 ft 420 kts 19°
2026-04-25 08:20 37.27404 112.32962 38991 ft 421 kts 19°
2026-04-25 08:20 37.32737 112.36120 38989 ft 426 kts 19°
2026-04-25 08:21 37.38066 112.39293 38987 ft 426 kts 19°
2026-04-25 08:21 37.43419 112.42489 38987 ft 426 kts 19°
2026-04-25 08:22 37.48772 112.45687 38990 ft 425 kts 19°
2026-04-25 08:22 37.53859 112.49609 38989 ft 436 kts 33°
2026-04-25 08:23 37.57950 112.55406 39000 ft 454 kts 51°
2026-04-25 08:23 37.61000 112.62446 39008 ft 459 kts 55°
2026-04-25 08:24 37.63841 112.69672 39007 ft 460 kts 56°
2026-04-25 08:24 37.66679 112.76904 39010 ft 460 kts 56°
2026-04-25 08:25 37.69543 112.84118 39011 ft 459 kts 56°
2026-04-25 08:25 37.72410 112.91312 39007 ft 459 kts 56°
2026-04-25 08:26 37.75277 112.98527 39006 ft 460 kts 55°
2026-04-25 08:26 37.78127 113.05712 39004 ft 460 kts 55°
2026-04-25 08:27 37.80992 113.12952 39012 ft 461 kts 56°
2026-04-25 08:27 37.83851 113.20199 39002 ft 461 kts 56°
2026-04-25 08:28 37.86708 113.27456 38997 ft 461 kts 56°
2026-04-25 08:28 37.89562 113.34722 38998 ft 462 kts 56°
2026-04-25 08:29 37.92416 113.42005 38988 ft 462 kts 56°
2026-04-25 08:29 37.95261 113.49287 38987 ft 460 kts 56°
2026-04-25 08:30 37.98088 113.56566 38976 ft 460 kts 56°
2026-04-25 08:30 38.00909 113.63845 38972 ft 460 kts 56°
2026-04-25 08:31 38.03730 113.71140 38968 ft 461 kts 56°
2026-04-25 08:31 38.06553 113.78459 38963 ft 462 kts 56°
2026-04-25 08:32 38.09370 113.85778 38954 ft 462 kts 55°
2026-04-25 08:32 38.12185 113.93110 38956 ft 462 kts 56°
2026-04-25 08:33 38.14998 114.00454 38949 ft 463 kts 56°
2026-04-25 08:33 38.17814 114.07824 38963 ft 464 kts 56°
2026-04-25 08:34 38.20630 114.15212 38953 ft 465 kts 56°
2026-04-25 08:34 38.23461 114.22608 38946 ft 465 kts 56°
2026-04-25 08:35 38.26273 114.29960 38947 ft 465 kts 56°
2026-04-25 08:35 38.29094 114.37365 38954 ft 465 kts 56°
2026-04-25 08:36 38.31916 114.44792 38939 ft 467 kts 56°
2026-04-25 08:36 38.34740 114.52246 38924 ft 467 kts 56°
2026-04-25 08:37 38.37558 114.59704 38937 ft 467 kts 56°
2026-04-25 08:37 38.40371 114.67166 38935 ft 467 kts 56°
2026-04-25 08:38 38.43179 114.74644 38924 ft 468 kts 57°
2026-04-25 08:38 38.45971 114.82142 38938 ft 468 kts 56°
2026-04-25 08:39 38.48771 114.89623 38946 ft 467 kts 56°
2026-04-25 08:39 38.51572 114.97121 38952 ft 468 kts 57°
2026-04-25 08:40 38.54362 115.04617 38954 ft 468 kts 57°
2026-04-25 08:40 38.57145 115.12136 38953 ft 469 kts 57°
2026-04-25 08:41 38.59922 115.19691 38954 ft 470 kts 57°
2026-04-25 08:41 38.62678 115.27214 38954 ft 470 kts 57°
2026-04-25 08:42 38.65462 115.34783 38960 ft 470 kts 57°
2026-04-25 08:42 38.68247 115.42360 38950 ft 470 kts 57°
2026-04-25 08:43 38.71023 115.49940 38952 ft 472 kts 57°
2026-04-25 08:43 38.74144 115.57261 38953 ft 467 kts 52°
2026-04-25 08:44 38.77427 115.64437 38965 ft 466 kts 52°
2026-04-25 08:44 38.80740 115.71618 38951 ft 467 kts 52°
2026-04-25 08:45 38.84023 115.78751 38953 ft 468 kts 52°
2026-04-25 08:45 38.87328 115.85963 38950 ft 469 kts 52°
2026-04-25 08:46 38.90630 115.93196 38954 ft 470 kts 52°
2026-04-25 08:46 38.93926 116.00438 38951 ft 469 kts 52°
2026-04-25 08:47 38.97220 116.07686 38958 ft 470 kts 52°
2026-04-25 08:47 39.00517 116.14952 38957 ft 471 kts 52°
2026-04-25 08:48 39.03814 116.22240 38956 ft 472 kts 52°
2026-04-25 08:48 39.07113 116.29550 38956 ft 471 kts 53°
2026-04-25 08:49 39.10401 116.36853 38946 ft 471 kts 53°
2026-04-25 08:49 39.13680 116.44147 38966 ft 474 kts 53°
2026-04-25 08:50 39.17111 116.51399 38951 ft 468 kts 46°
2026-04-25 08:50 39.21621 116.57162 38955 ft 448 kts 28°
2026-04-25 08:51 39.27075 116.60729 38958 ft 436 kts 15°
2026-04-25 08:51 39.32776 116.63437 38952 ft 436 kts 13°
2026-04-25 08:52 39.38470 116.66022 38938 ft 437 kts 13°
2026-04-25 08:52 39.44204 116.68658 38942 ft 437 kts 13°
2026-04-25 08:53 39.49940 116.71329 38933 ft 439 kts 13°
2026-04-25 08:53 39.55686 116.74022 38934 ft 439 kts 13°
2026-04-25 08:54 39.61430 116.76720 38944 ft 439 kts 13°
2026-04-25 08:54 39.67191 116.79427 38928 ft 441 kts 13°
2026-04-25 08:55 39.72970 116.82147 38923 ft 442 kts 13°
2026-04-25 08:55 39.78820 116.84355 38932 ft 432 kts
2026-04-25 08:56 39.84738 116.84453 38920 ft 423 kts 348°
2026-04-25 08:56 39.89579 116.83619 38917 ft 423 kts 347°
2026-04-25 08:57 39.96334 116.82236 38918 ft 423 kts 346°
2026-04-25 08:57 40.02182 116.81030 38918 ft 423 kts 346°
2026-04-25 08:58 40.07958 116.79864 38925 ft 423 kts 346°
2026-04-25 08:58 40.13775 116.78699 38925 ft 423 kts 347°
2026-04-25 08:59 40.19594 116.77534 38924 ft 423 kts 346°
2026-04-25 08:59 40.25407 116.76366 38923 ft 423 kts 346°
2026-04-25 09:00 40.30251 116.75399 38916 ft 424 kts 347°
2026-04-25 09:00 40.36208 116.75273 38918 ft 432 kts 358°
2026-04-25 09:01 40.42211 116.75925 38923 ft 434 kts 359°
2026-04-25 09:01 40.48240 116.76701 38913 ft 437 kts 359°
2026-04-25 09:02 40.54297 116.77487 38910 ft 437 kts 359°
2026-04-25 09:02 40.60358 116.78260 38918 ft 438 kts 359°
2026-04-25 09:03 40.66429 116.79024 38912 ft 439 kts 359°
2026-04-25 09:03 40.72508 116.79788 38912 ft 439 kts 359°
2026-04-25 09:04 40.78588 116.80504 38910 ft 437 kts 357°
2026-04-25 09:04 40.84660 116.80809 38908 ft 436 kts 355°
2026-04-25 09:05 40.90722 116.81020 38902 ft 436 kts 355°
2026-04-25 09:05 40.96785 116.81288 38904 ft 436 kts 356°
2026-04-25 09:06 41.02858 116.81597 38898 ft 437 kts 356°
2026-04-25 09:06 41.08943 116.81917 38910 ft 438 kts 356°
2026-04-25 09:07 41.15042 116.82240 38908 ft 439 kts 356°
2026-04-25 09:07 41.21101 116.82559 38899 ft 439 kts 356°
2026-04-25 09:08 41.27217 116.82879 38896 ft 440 kts 356°
2026-04-25 09:08 41.33340 116.83202 38893 ft 440 kts 356°
2026-04-25 09:09 41.39468 116.83524 38890 ft 441 kts 356°
2026-04-25 09:09 41.45623 116.83848 38882 ft 443 kts 356°
2026-04-25 09:10 41.51791 116.84176 38873 ft 443 kts 356°
2026-04-25 09:10 41.57955 116.84503 38879 ft 444 kts 356°
2026-04-25 09:11 41.67078 116.87530 38861 ft 466 kts 22°
2026-04-25 09:11 41.72284 116.92896 38876 ft 484 kts 43°
2026-04-25 09:12 41.74317 116.96528 38871 ft 493 kts 54°
2026-04-25 09:12 41.75949 117.00608 38853 ft 498 kts 59°
2026-04-25 09:12 41.78900 117.09045 38867 ft 502 kts 61°
2026-04-25 09:13 41.81770 117.17569 38862 ft 502 kts 61°
2026-04-25 09:13 41.84667 117.26081 38865 ft 501 kts 60°
2026-04-25 09:14 41.87583 117.34570 38852 ft 502 kts 60°
2026-04-25 09:14 41.90504 117.43069 38857 ft 502 kts 60°
2026-04-25 09:15 41.93422 117.51589 38858 ft 502 kts 60°
2026-04-25 09:15 41.96331 117.60117 38859 ft 502 kts 60°
2026-04-25 09:16 41.99231 117.68645 38847 ft 502 kts 60°
2026-04-25 09:16 42.02124 117.77179 38849 ft 502 kts 60°
2026-04-25 09:17 42.06452 117.89994 38855 ft 501 kts 61°
2026-04-25 09:18 42.09311 117.98489 38849 ft 502 kts 61°
2026-04-25 09:18 42.12189 118.07061 38850 ft 502 kts 60°
2026-04-25 09:19 42.15057 118.15640 38838 ft 502 kts 60°
2026-04-25 09:19 42.17917 118.24221 38836 ft 502 kts 61°
2026-04-25 09:20 42.20859 118.32744 38830 ft 501 kts 59°
2026-04-25 09:20 42.23966 118.41144 38826 ft 500 kts 58°
2026-04-25 09:21 42.27064 118.49543 38819 ft 500 kts 58°
2026-04-25 09:21 42.30128 118.57981 38815 ft 501 kts 59°
2026-04-25 09:22 42.33174 118.66439 38811 ft 501 kts 59°
2026-04-25 09:22 42.36212 118.74911 38813 ft 501 kts 59°
2026-04-25 09:23 42.39243 118.83386 38832 ft 501 kts 59°
2026-04-25 09:23 42.42275 118.91883 38822 ft 501 kts 59°
2026-04-25 09:24 42.45299 119.00384 38832 ft 501 kts 59°
2026-04-25 09:24 42.48315 119.08892 38841 ft 501 kts 59°
2026-04-25 09:25 42.51329 119.17414 38844 ft 502 kts 60°
2026-04-25 09:25 42.54344 119.25967 38855 ft 503 kts 60°
2026-04-25 09:26 42.57355 119.34538 38870 ft 503 kts 59°
2026-04-25 09:26 42.60351 119.43095 38868 ft 502 kts 60°
2026-04-25 09:27 42.63340 119.51654 38879 ft 502 kts 60°
2026-04-25 09:27 42.66330 119.60241 38885 ft 503 kts 60°
2026-04-25 09:28 42.69311 119.68829 38885 ft 503 kts 60°
2026-04-25 09:28 42.72267 119.77376 38908 ft 503 kts 60°
2026-04-25 09:29 42.75234 119.85981 38895 ft 502 kts 60°
2026-04-25 09:29 42.78189 119.94576 38894 ft 502 kts 60°
2026-04-25 09:30 42.81140 120.03184 38895 ft 501 kts 61°
2026-04-25 09:30 42.84079 120.11789 38905 ft 500 kts 61°
2026-04-25 09:31 42.87009 120.20390 38886 ft 501 kts 61°
2026-04-25 09:31 42.89938 120.29015 38901 ft 501 kts 61°
2026-04-25 09:32 42.92859 120.37645 38901 ft 501 kts 61°
2026-04-25 09:32 42.95777 120.46295 38893 ft 501 kts 61°
2026-04-25 09:33 42.98726 120.54908 38904 ft 500 kts 60°
2026-04-25 09:33 43.01800 120.63438 38906 ft 500 kts 59°
2026-04-25 09:34 43.04876 120.71965 38903 ft 500 kts 60°
2026-04-25 09:34 43.07932 120.80531 38903 ft 502 kts 60°
2026-04-25 09:35 43.10981 120.89144 38905 ft 503 kts 60°
2026-04-25 09:35 43.14017 120.97759 38905 ft 503 kts 60°
2026-04-25 09:36 43.17052 121.06391 38917 ft 503 kts 60°
2026-04-25 09:36 43.20085 121.15043 38904 ft 504 kts 60°
2026-04-25 09:37 43.23118 121.23721 38903 ft 505 kts 60°
2026-04-25 09:37 43.26147 121.32418 38902 ft 505 kts 61°
2026-04-25 09:38 43.29165 121.41109 38909 ft 506 kts 61°
2026-04-25 09:38 43.32189 121.49844 38901 ft 507 kts 61°
2026-04-25 09:39 43.35205 121.58586 38902 ft 506 kts 61°
2026-04-25 09:39 43.38218 121.67346 38904 ft 506 kts 61°
2026-04-25 09:40 43.42723 121.80498 38905 ft 507 kts 61°
2026-04-25 09:40 43.45722 121.89287 38903 ft 508 kts 61°
2026-04-25 09:41 43.48715 121.98088 38912 ft 508 kts 62°
2026-04-25 09:41 43.51682 122.06842 38914 ft 507 kts 62°
2026-04-25 09:42 43.54658 122.15650 38910 ft 507 kts 62°
2026-04-25 09:42 43.58254 122.23917 38907 ft 500 kts 51°
2026-04-25 09:43 43.62266 122.31736 38611 ft 500 kts 50°
2026-04-25 09:43 43.64309 122.35630 37997 ft 501 kts 50°
2026-04-25 09:43 43.66351 122.39517 37401 ft 500 kts 50°
2026-04-25 09:44 43.68393 122.43411 36760 ft 500 kts 50°
2026-04-25 09:44 43.70433 122.47316 36097 ft 502 kts 50°
2026-04-25 09:44 43.72474 122.51237 35440 ft 503 kts 51°
2026-04-25 09:44 43.74513 122.55168 35035 ft 504 kts 51°
2026-04-25 09:45 43.78634 122.63132 34923 ft 512 kts 51°
2026-04-25 09:45 43.82771 122.71159 34929 ft 513 kts 51°
2026-04-25 09:46 43.86918 122.79226 34353 ft 515 kts 51°
2026-04-25 09:46 43.88293 122.81903 33943 ft 516 kts 51°
2026-04-25 09:46 43.90371 122.85956 33309 ft 514 kts 51°
2026-04-25 09:47 43.92440 122.89997 32620 ft 514 kts 51°
2026-04-25 09:47 43.94506 122.94037 31893 ft 514 kts 51°
2026-04-25 09:47 43.96602 122.98059 31143 ft 514 kts 51°
2026-04-25 09:47 43.98728 123.02068 30371 ft 516 kts 50°
2026-04-25 09:48 44.00865 123.06071 29574 ft 517 kts 50°
2026-04-25 09:48 44.03004 123.10083 29084 ft 517 kts 50°
2026-04-25 09:48 44.05145 123.14114 28943 ft 519 kts 50°
2026-04-25 09:48 44.07279 123.18147 28941 ft 518 kts 51°
2026-04-25 09:49 44.11532 123.26225 28941 ft 517 kts 51°
2026-04-25 09:49 44.15772 123.34312 28945 ft 517 kts 51°
2026-04-25 09:50 44.20002 123.42400 28951 ft 517 kts 51°
2026-04-25 09:50 44.24233 123.50513 28948 ft 517 kts 51°
2026-04-25 09:51 44.28450 123.58622 28951 ft 516 kts 51°
2026-04-25 09:51 44.32662 123.66742 28951 ft 517 kts 51°
2026-04-25 09:52 44.36874 123.74884 28953 ft 517 kts 51°
2026-04-25 09:52 44.41078 123.83036 28954 ft 517 kts 51°
2026-04-25 09:53 44.45279 123.91207 28949 ft 518 kts 51°
2026-04-25 09:53 44.49493 123.99340 28967 ft 520 kts 50°
2026-04-25 09:54 44.53841 124.07418 28968 ft 517 kts 45°
2026-04-25 09:54 44.56402 124.10902 28959 ft 510 kts 34°
2026-04-25 09:54 44.59319 124.13665 28971 ft 502 kts 22°
2026-04-25 09:55 44.65578 124.17919 28961 ft 499 kts 18°
2026-04-25 09:55 44.71629 124.22822 28962 ft 514 kts 38°
2026-04-25 09:56 44.74031 124.26581 28954 ft 519 kts 49°
2026-04-25 09:56 44.76205 124.30637 28983 ft 521 kts 50°
2026-04-25 09:56 44.80508 124.38890 28965 ft 524 kts 50°
2026-04-25 09:57 44.82657 124.43029 28672 ft 519 kts 50°
2026-04-25 09:57 44.84780 124.47122 27961 ft 517 kts 50°
2026-04-25 09:57 44.86898 124.51211 27288 ft 514 kts 50°
2026-04-25 09:57 44.88992 124.55257 26679 ft 511 kts 50°
2026-04-25 09:58 44.91083 124.59305 26087 ft 507 kts 50°
2026-04-25 09:58 44.93151 124.63314 25505 ft 504 kts 50°
2026-04-25 09:58 44.95202 124.67295 24919 ft 498 kts 50°
2026-04-25 09:58 44.97217 124.71213 23933 ft 487 kts 50°
2026-04-25 09:59 44.99188 124.75051 22522 ft 481 kts 50°
2026-04-25 09:59 45.01123 124.78820 21048 ft 476 kts 50°
2026-04-25 09:59 45.03050 124.82579 19669 ft 471 kts 50°
2026-04-25 09:59 45.04981 124.86290 18369 ft 464 kts 49°
2026-04-25 10:00 45.06889 124.89936 16972 ft 459 kts 49°
2026-04-25 10:00 45.08790 124.93570 15825 ft 461 kts 50°
2026-04-25 10:00 45.10685 124.97205 15089 ft 456 kts 50°
2026-04-25 10:00 45.12553 125.00799 14382 ft 452 kts 51°
2026-04-25 10:01 45.14397 125.04354 13985 ft 440 kts 51°
2026-04-25 10:01 45.16175 125.07790 13731 ft 425 kts 51°
2026-04-25 10:01 45.17893 125.11116 13548 ft 411 kts 50°
2026-04-25 10:01 45.19554 125.14335 13318 ft 398 kts 49°
2026-04-25 10:02 45.21164 125.17455 13130 ft 385 kts 49°
2026-04-25 10:02 45.22703 125.20446 12871 ft 366 kts 49°
2026-04-25 10:02 45.24165 125.23288 12622 ft 349 kts 49°
2026-04-25 10:02 45.25572 125.26023 12339 ft 336 kts 49°
2026-04-25 10:03 45.26933 125.28667 11935 ft 329 kts 49°
2026-04-25 10:03 45.28244 125.31302 11504 ft 325 kts 54°
2026-04-25 10:03 45.29139 125.34237 11024 ft 325 kts 77°
2026-04-25 10:03 45.29314 125.37388 10574 ft 317 kts 96°
2026-04-25 10:04 45.29171 125.40476 10086 ft 311 kts 98°
2026-04-25 10:04 45.28998 125.43474 9755 ft 299 kts 98°
2026-04-25 10:04 45.28830 125.46390 9271 ft 294 kts 98°
2026-04-25 10:04 45.28669 125.49254 8786 ft 288 kts 97°
2026-04-25 10:05 45.28513 125.52063 8347 ft 282 kts 97°
2026-04-25 10:05 45.28361 125.54812 7927 ft 277 kts 96°
2026-04-25 10:05 45.28213 125.57513 7517 ft 271 kts 96°
2026-04-25 10:05 45.28068 125.60149 7125 ft 265 kts 95°
2026-04-25 10:06 45.27927 125.62698 6739 ft 259 kts 95°
2026-04-25 10:06 45.27786 125.65239 6407 ft 256 kts 94°
2026-04-25 10:06 45.27648 125.67743 6220 ft 252 kts 94°
2026-04-25 10:06 45.27510 125.70211 5993 ft 250 kts 94°
2026-04-25 10:07 45.27373 125.72667 5725 ft 249 kts 93°
2026-04-25 10:07 45.27235 125.75116 5483 ft 248 kts 92°
2026-04-25 10:07 45.27099 125.77551 5243 ft 246 kts 92°
2026-04-25 10:07 45.26962 125.79967 5022 ft 244 kts 92°
2026-04-25 10:08 45.26844 125.82361 4977 ft 243 kts 88°
2026-04-25 10:08 45.27125 125.84684 4971 ft 238 kts 62°
2026-04-25 10:08 45.28102 125.86510 4978 ft 231 kts 39°
2026-04-25 10:08 45.29335 125.87975 4976 ft 231 kts 35°
2026-04-25 10:09 45.30596 125.89397 4977 ft 232 kts 35°
2026-04-25 10:09 45.31853 125.90824 4977 ft 231 kts 36°
2026-04-25 10:09 45.33105 125.92255 4977 ft 231 kts 36°
2026-04-25 10:09 45.34350 125.93689 4976 ft 229 kts 36°
2026-04-25 10:10 45.35552 125.95079 4975 ft 216 kts 36°
2026-04-25 10:10 45.36688 125.96396 4954 ft 206 kts 36°
2026-04-25 10:10 45.37783 125.97663 4856 ft 199 kts 35°
2026-04-25 10:10 45.38822 125.98867 4780 ft 191 kts 35°
2026-04-25 10:11 45.39845 126.00054 4697 ft 183 kts 35°
2026-04-25 10:11 45.40791 126.01152 4573 ft 174 kts 35°
2026-04-25 10:11 45.41725 126.02234 4282 ft 173 kts 35°
2026-04-25 10:11 45.42662 126.03318 3974 ft 174 kts 36°
2026-04-25 10:12 45.43593 126.04398 3706 ft 171 kts 36°
2026-04-25 10:12 45.44514 126.05468 3443 ft 170 kts 36°
2026-04-25 10:12 45.46340 126.07584 2996 ft 167 kts 36°
2026-04-25 10:13 45.47194 126.08573 2992 ft 148 kts 37°
2026-04-25 10:13 45.47933 126.09441 2981 ft 130 kts 37°
2026-04-25 10:13 45.48632 126.10250 2846 ft 130 kts 36°
2026-04-25 10:13 45.49335 126.11061 2668 ft 130 kts 36°
2026-04-25 10:14 45.50039 126.11883 2488 ft 131 kts 37°
2026-04-25 10:14 45.50743 126.12705 2310 ft 131 kts 37°
2026-04-25 10:14 45.51446 126.13526 2128 ft 130 kts 37°
2026-04-25 10:14 45.52152 126.14351 1944 ft 133 kts 36°
2026-04-25 10:15 45.52867 126.15186 1764 ft 133 kts 37°
2026-04-25 10:15 45.53585 126.16026 1586 ft 133 kts 37°
2026-04-25 10:15 45.54300 126.16862 1395 ft 132 kts 38°
2026-04-25 10:15 45.55010 126.17693 1210 ft 133 kts 38°
2026-04-25 10:16 45.55728 126.18533 1030 ft 134 kts 37°
2026-04-25 10:16 45.56453 126.19380 839 ft 135 kts 38°
2026-04-25 10:16 45.57178 126.20227 650 ft 134 kts 36°
2026-04-25 10:16 45.57889 126.21068 528 ft 132 kts 35°
2026-04-25 10:17 45.58539 126.21821 502 ft 100 kts 39°
2026-04-25 10:17 45.58893 126.22236 490 ft 38 kts 39°
2026-04-25 10:17 45.59039 126.22341 486 ft 21 kts 16°
2026-04-25 10:17 45.59183 126.22397 485 ft 22 kts 13°
2026-04-25 10:18 45.59327 126.22469 486 ft 23 kts 36°
2026-04-25 10:18 45.59454 126.22609 480 ft 24 kts 39°
2026-04-25 10:18 45.59564 126.22750 483 ft 9 kts 39°
2026-04-25 10:18 45.59624 126.22773 479 ft 9 kts 340°
2026-04-25 10:19 45.59691 126.22761 481 ft 11 kts 18°
2026-04-25 10:19 45.59765 126.22772 476 ft 11 kts 335°
2026-04-25 10:19 45.59823 126.22688 475 ft 13 kts 310°
2026-04-25 10:19 45.59883 126.22586 478 ft 14 kts 310°
2026-04-25 10:20 45.59950 126.22475 476 ft 13 kts 311°
2026-04-25 10:20 45.59969 126.22444 474 ft 2 kts 311°
2026-04-25 10:20 45.60003 126.22415 476 ft 7 kts 347°
2026-04-25 10:20 45.60051 126.22441 478 ft 9 kts 32°
2026-04-25 10:21 45.60105 126.22499 474 ft 11 kts 38°
2026-04-25 10:21 45.60172 126.22522 474 ft 10 kts 330°
2026-04-25 10:21 45.60225 126.22440 474 ft 12 kts 311°
2026-04-25 10:21 45.60283 126.22342 475 ft 14 kts 310°
2026-04-25 10:22 45.60348 126.22230 470 ft 15 kts 309°
2026-04-25 10:22 45.60395 126.22151 473 ft 16 kts 310°
2026-04-25 10:22 45.60498 126.21979 469 ft 18 kts 310°
2026-04-25 10:22 45.60559 126.21875 469 ft 9 kts 309°
2026-04-25 10:23 45.60578 126.21863 471 ft 1 kts 349°
2026-04-25 10:23 45.60594 126.21869 472 ft 3 kts 15°
2026-04-25 10:23 45.60621 126.21890 473 ft 6 kts 33°
2026-04-25 10:23 45.60658 126.21930 470 ft 6 kts 38°
2026-04-25 10:24 45.60661 126.21933 469 ft 0 kts 38°
2026-04-25 10:25 45.60660 126.21933 476 ft 0 kts 38°
2026-04-25 10:33 45.60660 126.21932 476 ft 0 kts 38°